Location: Center Berlin
(42.6609°N, 73.3687°W)
Time: 20:10:52
(UTC+00:00)

SJ-6B - Pass Details

Date: 10 September 2024
Orbit: 483 x 537 km, 97.4° (Epoch: 13 October)

Event Time Altitude Azimuth Distance (km) Brightness Sun altitude
Rises 23:42:08 0° 152° (SSE) 2,579 5.9 -6.5°
Reaches altitude 10° 23:44:16 10° 145° (SE) 1,692 4.9 -6.8°
Maximum altitude 23:47:44 43° 73° (ENE) 700 3.0 -7.5°
Drops below altitude 10° 23:51:10 10° 1° (N) 1,683 5.5 -8.1°
Sets 23:53:18 0° 355° (N) 2,564 6.5 -8.5°
